Location: Cedar Springs
(43.2230°N, 85.5510°W)
Time: 00:59:49
(UTC-04:00)

Cosmos 2278 Rocket - Visible Passes

Search period start: 29 September 2016 00:00
Search period end: 09 October 2016 00:00
Orbit: 842 x 845 km, 71.0° (Epoch: 28 September)

Date Brightness Start Highest point End Pass type
(mag) Time Alt. Az. Time Alt. Az. Time Alt. Az.
29 Sep 5.0 20:20:48 10° NW 20:24:46 20° W 20:28:42 10° SW visible
30 Sep 5.0 20:06:11 10° NW 20:10:15 21° W 20:14:18 10° SSW visible
01 Oct 5.0 19:51:34 10° NW 19:55:44 22° W 19:59:54 10° SSW visible
03 Oct 5.6 07:04:27 10° ESE 07:06:44 13° E 07:09:03 10° ENE visible
04 Oct 5.6 06:50:14 10° ESE 06:52:15 12° E 06:54:15 10° ENE visible
05 Oct 5.6 06:36:05 10° ESE 06:37:44 11° E 06:39:24 10° ENE visible
06 Oct 5.6 06:22:02 10° ESE 06:23:14 11° E 06:24:26 10° E visible
07 Oct 5.7 06:08:27 10° E 06:08:44 10° E 06:09:02 10° E visible
